Weather History for Gulkana, AK

Change the Weather History Date:

Monday, July 30, 2012

  Actual Average Record
Temperature  
Mean Temperature 54 °F -  
Max Temperature 63 °F 68 °F 84 °F (1953)
Min Temperature 46 °F 46 °F 32 °F (1990)
Degree Days  
Heating Degree Days 10    
Growing Degree Days 4 (Base 50)    
Moisture  
Dew Point 38 °F    
Average Humidity 53    
Maximum Humidity 71    
Minimum Humidity 28    
Precipitation  
Precipitation 0.00 in - - ()
Sea Level Pressure  
Sea Level Pressure 29.83 in    
Wind  
Wind Speed 13 mph (SSE)    
Max Wind Speed 20 mph    
Max Gust Speed 31 mph    
Visibility 10 miles    
Events      
Averages and records for this station are not official NWS values.
T = Trace of Precipitation, MM = Missing Value Source: NWS Daily Summary

Daily Weather History Graph

Daily Weather History Graph

Search for Another Location

Airport:

Trip Planner

Search our weather history database for the weather conditions in past years. The results will help you decide how hot, cold, wet, or windy it might be!

Date:

Astronomy

Jul. 30, 2012 Rise Set
Actual Time 5:03 AM AKDT 10:31 PM AKDT
Civil Twilight 3:49 AM AKDT 11:43 PM AKDT
Nautical Twilight 2:20 AM AKDT 1:15 AM AKDT
Astronomical Twilight Sun does not rise Sun does not rise
Moon 8:50 PM AKDT (7/30) 2:06 AM AKDT (7/30)
Length of Visible Light 19h 54m
Length of Day
17h 28m
Waxing Gibbous, 93% of the Moon is Illuminated
Jul 30
Waxing Gibbous
Aug 1
Full
Aug 9
Last Quarter
Aug 17
New
Aug 24
First Quarter

Hourly Weather History & Observations

Time (AKDT) Temp. Dew Point Humidity Pressure Visibility Wind Dir Wind Speed Gust Speed Precip Events Conditions
12:53 AM 51.1 °F 39.0 °F 63% 29.85 in 10.0 mi SSE 10.4 mph - N/A   Clear
1:53 AM 48.9 °F 39.0 °F 69% 29.85 in 10.0 mi SSE 9.2 mph - N/A   Clear
2:53 AM 48.0 °F 39.0 °F 71% 29.85 in 10.0 mi South 12.7 mph - N/A   Clear
3:53 AM 46.9 °F 37.9 °F 71% 29.84 in 10.0 mi SSE 11.5 mph - N/A   Clear
4:53 AM 48.0 °F 37.0 °F 66% 29.84 in 10.0 mi SSE 13.8 mph 19.6 mph N/A   Clear
5:53 AM 48.9 °F 37.0 °F 64% 29.83 in 10.0 mi SSE 16.1 mph - N/A   Clear
5:59 AM 48.2 °F 37.4 °F 66% 29.83 in 10.0 mi SSE 15.0 mph - N/A   Scattered Clouds
6:53 AM 50.0 °F 37.0 °F 61% 29.83 in 10.0 mi SSE 12.7 mph - N/A   Scattered Clouds
7:53 AM 52.0 °F 37.9 °F 59% 29.82 in 10.0 mi SSE 17.3 mph 21.9 mph N/A   Scattered Clouds
8:53 AM 54.0 °F 37.9 °F 55% 29.83 in 10.0 mi SSE 13.8 mph 26.5 mph N/A   Scattered Clouds
9:53 AM 57.0 °F 39.0 °F 51% 29.82 in 10.0 mi SSE 17.3 mph 23.0 mph N/A   Scattered Clouds
10:53 AM 57.9 °F 37.0 °F 46% 29.82 in 10.0 mi South 16.1 mph 27.6 mph N/A   Scattered Clouds
11:53 AM 60.1 °F 37.9 °F 44% 29.82 in 10.0 mi SSE 18.4 mph 26.5 mph N/A   Mostly Cloudy
12:53 PM 60.1 °F 37.9 °F 44% 29.82 in 10.0 mi SSE 17.3 mph 26.5 mph N/A   Mostly Cloudy
1:53 PM 61.0 °F 37.9 °F 42% 29.82 in 10.0 mi SSE 19.6 mph 31.1 mph N/A   Mostly Cloudy
2:53 PM 63.0 °F 39.0 °F 41% 29.81 in 10.0 mi South 19.6 mph 26.5 mph N/A   Mostly Cloudy
3:53 PM 63.0 °F 37.9 °F 40% 29.81 in 10.0 mi South 18.4 mph 24.2 mph N/A   Mostly Cloudy
4:53 PM 61.0 °F 37.9 °F 42% 29.82 in 10.0 mi SSE 15.0 mph 23.0 mph N/A   Mostly Cloudy
5:53 PM 63.0 °F 37.9 °F 40% 29.81 in 10.0 mi South 16.1 mph 21.9 mph N/A   Mostly Cloudy
6:53 PM 61.0 °F 36.0 °F 39% 29.82 in 10.0 mi SSE 13.8 mph - N/A   Mostly Cloudy
7:53 PM 59.0 °F 37.0 °F 44% 29.83 in 10.0 mi SSW 10.4 mph - N/A   Mostly Cloudy
8:53 PM 55.9 °F 39.0 °F 53% 29.84 in 10.0 mi South 5.8 mph - N/A   Mostly Cloudy
9:27 PM 53.6 °F 37.4 °F 54% 29.84 in 10.0 mi South 4.6 mph - N/A   Mostly Cloudy
9:53 PM 52.0 °F 37.9 °F 59% 29.85 in 10.0 mi South 5.8 mph - N/A   Clear
10:53 PM 50.0 °F 37.9 °F 63% 29.86 in 10.0 mi SE 6.9 mph - N/A   Clear
11:53 PM 46.9 °F 37.9 °F 71% 29.87 in 10.0 mi SE 6.9 mph - N/A   Clear